Edwards, CA

3:46 PM PST on February 08, 2016 (GMT -0800)
Edwards AFB North Base

Weather History for K9L2 - March, 2013

Change the Weather History Date:

Sunday, March 31, 2013

  Actual Average (KEDW) Record (KEDW)
Temperature  
Mean Temperature 60 °F -  
Max Temperature 70 °F 66 °F 86 °F (2011)
Min Temperature 51 °F 40 °F 28 °F (2009)
Degree Days  
Heating Degree Days 5    
Growing Degree Days 10 (Base 50)    
Moisture  
Dew Point 41 °F    
Average Humidity 55    
Maximum Humidity 76    
Minimum Humidity 32    
Precipitation  
Precipitation 0.00 in - - ()
Sea Level Pressure  
Sea Level Pressure 30.01 in    
Wind  
Wind Speed 17 mph (WSW)    
Max Wind Speed 26 mph    
Max Gust Speed 32 mph    
Visibility 10 miles    
Events      
Averages and records for this station are not official NWS values.
T = Trace of Precipitation, MM = Missing Value Source: NWS Daily Summary

Daily Weather History Graph

Daily Weather History Graph

Search for Another Location

Airport or City:

Trip Planner

Search our weather history database for the weather conditions in past years. The results will help you decide how hot, cold, wet, or windy it might be!

Date:

Astronomy

Mar. 31, 2013 Rise Set
Actual Time 6:39 AM PDT 7:12 PM PDT
Civil Twilight 6:13 AM PDT 7:37 PM PDT
Nautical Twilight 5:43 AM PDT 8:07 PM PDT
Astronomical Twilight 5:13 AM PDT 8:38 PM PDT
Moon No Moon Rise 9:41 AM PDT (3/31)
Length of Visible Light 13h 23m
Length of Day
12h 33m
Waning Gibbous, 76% of the Moon is Illuminated
Mar 31
Waning Gibbous
Apr 2
Last Quarter
Apr 10
New
Apr 18
First Quarter
Apr 25
Full

Hourly Weather History & Observations

Time (PDT) Temp. Dew Point Humidity Pressure Visibility Wind Dir Wind Speed Gust Speed Precip Events Conditions
12:55 AM 59.0 °F 34.0 °F 39% 30.00 in 10.0 mi WSW 20.7 mph 26.5 mph N/A   Clear
1:55 AM 57.0 °F 30.0 °F 36% 30.01 in 10.0 mi WSW 13.8 mph 25.3 mph N/A   Clear
2:55 AM 55.9 °F 32.0 °F 40% 30.01 in 10.0 mi WSW 15.0 mph - N/A   Clear
3:55 AM 55.0 °F 39.0 °F 55% 29.99 in 10.0 mi SW 11.5 mph - N/A   Mostly Cloudy
4:55 AM 55.0 °F 42.1 °F 62% 29.99 in 10.0 mi SW 20.7 mph - N/A   Mostly Cloudy
5:55 AM 54.0 °F 43.0 °F 66% 30.00 in 10.0 mi SW 16.1 mph - N/A   Overcast
6:55 AM 52.0 °F 43.0 °F 71% 30.04 in 10.0 mi West 8.1 mph - N/A   Partly Cloudy
7:55 AM 54.0 °F 45.0 °F 72% 30.06 in 10.0 mi SW 18.4 mph 23.0 mph N/A   Clear
8:55 AM 57.9 °F 44.1 °F 60% 30.05 in 10.0 mi SW 16.1 mph - N/A   Clear
9:55 AM 62.1 °F 42.1 °F 48% 30.05 in 10.0 mi West 12.7 mph - N/A   Clear
10:55 AM 66.0 °F 37.0 °F 34% 30.03 in 10.0 mi West 11.5 mph - N/A   Clear
11:55 AM 68.0 °F 37.9 °F 33% 30.03 in 10.0 mi SW 17.3 mph 26.5 mph N/A   Partly Cloudy
12:55 PM 69.1 °F 37.9 °F 32% 30.01 in 10.0 mi SSW 23.0 mph - N/A   Mostly Cloudy
1:55 PM - - N/A% - - North - - N/A   Unknown
2:55 PM 68.0 °F 42.1 °F 39% 29.99 in 10.0 mi SW 26.5 mph 32.2 mph N/A   Clear
3:55 PM 66.9 °F 43.0 °F 42% 29.98 in 10.0 mi WSW 21.9 mph 31.1 mph N/A   Clear
4:55 PM 64.9 °F 45.0 °F 48% 29.98 in 10.0 mi WSW 21.9 mph 31.1 mph N/A   Clear
5:55 PM 64.0 °F 43.0 °F 46% 29.97 in 10.0 mi WSW 18.4 mph 28.8 mph N/A   Clear
6:55 PM 59.0 °F 45.0 °F 60% 29.99 in 10.0 mi WSW 19.6 mph 28.8 mph N/A   Clear
7:55 PM 55.9 °F 46.0 °F 69% 30.01 in 10.0 mi SW 13.8 mph - N/A   Clear
8:55 PM 55.0 °F 46.0 °F 72% 30.01 in 10.0 mi WSW 18.4 mph 25.3 mph N/A   Scattered Clouds
9:55 PM 53.1 °F 45.0 °F 74% 30.03 in 10.0 mi WSW 16.1 mph 25.3 mph N/A   Clear
10:55 PM 53.1 °F 45.0 °F 74% 30.02 in 10.0 mi WSW 17.3 mph 25.3 mph N/A   Clear
11:43 PM 51.8 °F 44.6 °F 76% 30.04 in 10.0 mi WSW 12.7 mph - N/A   Partly Cloudy
11:55 PM 52.0 °F 44.1 °F 74% 30.02 in 10.0 mi WSW 15.0 mph - N/A   Clear